Погода в Ерденеве

Россия / Калужская область     54°55′14″N   36°27′01″E
темп.,
°C
ветер,
м/с
пор.,
м/с
влажн.,
%
обл.,
%
осадки,
мм/ч
давл.,
гПа
погр.,
м
13 апреля, вт
вт1300:00+10вюв4139259 0.0 1025344
03:00+8вюв3119289 0.0 1024223
06:00+8юв3108899 0.0 1024171
09:00+13ююв4965100 0.0 1024317
12:00+18ююв4846100 0.0 1023799
15:00+20ююв573797 0.0 10222004
18:00+18ююв49487 0.0 1021316
21:00+12вюв356826 0.0 102177
14 апреля, ср
ср1400:00+11юв376774 0.0 1020123
03:00+12юв4116745 0.0 1020273
06:00+9ююв3118615 0.0 1020290
09:00+13ююв497556 0.0 1019515
12:00+17ю595587 0.0 10181572
15:00+17ю4657100 0.8 10181271
18:00+14юз2371100 0.8 101765
21:00+11ссв1180100 0.8 101810
15 апреля, чт
чт1500:00+10св1285100 0.0 101711
03:00+9св2277100 0.0 101718
06:00+8всв227499 0.0 101619
09:00+12всв3461100 0.0 1016233
12:00+15в3550100 0.0 1016761
15:00+16всв464598 0.0 10151306
18:00+15всв3754100 0.0 1015248
21:00+11св512706 0.1 1016499
16 апреля, пт
пт1600:00+9св5138783 0.1 1016496
03:00+8св6138861 0.1 1017484
06:00+6всв5129190 0.0 1018463
09:00+9всв6108090 0.0 1018596
12:00+13в476897 0.1 1018972
15:00+13всв697252 0.1 1019947
18:00+12всв51174100 0.3 1018912
21:00+10всв61492100 5.0 1020763
17 апреля, сб
сб1700:00+9всв51293100 1.8 1021563
03:00+8всв5119198 2.3 1021510
06:00+7всв51191100 0.2 1023458
09:00+9всв6108364 0.0 1022553
12:00+12всв6871100 0.0 1024857
15:00+15всв696084 0.0 10241224
18:00+14всв6116021 0.0 10241164
21:00+9всв5136295 0.0 1026599